TimeCDT,TemperatureF,Dew PointF,Humidity,Sea Level PressureIn,VisibilityMPH,Wind Direction,Wind SpeedMPH,Gust SpeedMPH,PrecipitationIn,Events,Conditions,WindDirDegrees,DateUTC
12:13 AM,10.4,6.8,85,30.07,10.0,Calm,Calm,-,N/A,,Clear,0,2013-03-23 05:13:00
12:33 AM,10.4,6.8,85,30.08,10.0,Calm,Calm,-,N/A,,Clear,0,2013-03-23 05:33:00
12:53 AM,10.4,6.8,85,30.08,10.0,Calm,Calm,-,N/A,,Scattered Clouds,0,2013-03-23 05:53:00
1:13 AM,10.4,6.8,85,30.08,10.0,Calm,Calm,-,N/A,,Mostly Cloudy,0,2013-03-23 06:13:00
1:33 AM,10.4,6.8,85,30.08,10.0,Calm,Calm,-,N/A,,Scattered Clouds,0,2013-03-23 06:33:00
1:53 AM,10.4,6.8,85,30.08,10.0,Calm,Calm,-,N/A,,Scattered Clouds,0,2013-03-23 06:53:00
2:13 AM,8.6,5.0,85,30.07,10.0,Calm,Calm,-,N/A,,Scattered Clouds,0,2013-03-23 07:13:00
2:33 AM,8.6,5.0,85,30.07,10.0,Calm,Calm,-,N/A,,Scattered Clouds,0,2013-03-23 07:33:00
2:53 AM,8.6,5.0,85,30.07,10.0,Calm,Calm,-,N/A,,Clear,0,2013-03-23 07:53:00
3:13 AM,8.6,3.2,79,30.07,10.0,Calm,Calm,-,N/A,,Clear,0,2013-03-23 08:13:00
3:33 AM,8.6,3.2,79,30.07,10.0,Calm,Calm,-,N/A,,Clear,0,2013-03-23 08:33:00
3:53 AM,6.8,3.2,85,30.07,10.0,Calm,Calm,-,N/A,,Clear,0,2013-03-23 08:53:00
4:13 AM,6.8,1.4,79,30.07,10.0,Calm,Calm,-,N/A,,Clear,0,2013-03-23 09:13:00
4:33 AM,3.2,1.4,92,30.06,10.0,Calm,Calm,-,N/A,,Clear,0,2013-03-23 09:33:00
4:53 AM,3.2,-0.4,85,30.07,10.0,Calm,Calm,-,N/A,,Clear,0,2013-03-23 09:53:00
5:13 AM,3.2,-0.4,85,30.08,10.0,Calm,Calm,-,N/A,,Scattered Clouds,0,2013-03-23 10:13:00
5:53 AM,6.8,1.4,79,30.10,10.0,Calm,Calm,-,N/A,,Overcast,0,2013-03-23 10:53:00
6:13 AM,8.6,3.2,79,30.10,10.0,Calm,Calm,-,N/A,,Overcast,0,2013-03-23 11:13:00
6:33 AM,8.6,6.8,92,30.10,10.0,Calm,Calm,-,N/A,,Overcast,0,2013-03-23 11:33:00
6:53 AM,10.4,6.8,85,30.10,10.0,Calm,Calm,-,N/A,,Overcast,0,2013-03-23 11:53:00
7:13 AM,10.4,6.8,85,30.10,10.0,Calm,Calm,-,N/A,,Overcast,0,2013-03-23 12:13:00
7:33 AM,10.4,6.8,85,30.11,10.0,Calm,Calm,-,N/A,,Overcast,0,2013-03-23 12:33:00
7:53 AM,12.2,10.4,92,30.11,10.0,Calm,Calm,-,N/A,,Overcast,0,2013-03-23 12:53:00
8:13 AM,15.8,10.4,79,30.11,10.0,Calm,Calm,-,N/A,,Overcast,0,2013-03-23 13:13:00
8:33 AM,17.6,12.2,79,30.10,10.0,Calm,Calm,-,N/A,,Scattered Clouds,0,2013-03-23 13:33:00
8:53 AM,17.6,12.2,79,30.11,10.0,Calm,Calm,-,N/A,,Clear,0,2013-03-23 13:53:00
9:13 AM,19.4,14.0,80,30.11,10.0,Calm,Calm,-,N/A,,Clear,0,2013-03-23 14:13:00
9:33 AM,17.6,12.2,79,30.11,10.0,Calm,Calm,-,N/A,,Scattered Clouds,0,2013-03-23 14:33:00
9:53 AM,21.2,14.0,74,30.11,10.0,Calm,Calm,-,N/A,,Mostly Cloudy,0,2013-03-23 14:53:00
10:13 AM,21.2,14.0,74,30.12,10.0,Calm,Calm,-,N/A,,Scattered Clouds,0,2013-03-23 15:13:00
10:33 AM,24.8,15.8,69,30.12,10.0,Calm,Calm,-,N/A,,Scattered Clouds,0,2013-03-23 15:33:00
10:53 AM,26.6,15.8,64,30.12,10.0,Calm,Calm,-,N/A,,Scattered Clouds,0,2013-03-23 15:53:00
11:13 AM,28.4,17.6,64,30.12,10.0,Calm,Calm,-,N/A,,Mostly Cloudy,0,2013-03-23 16:13:00
11:33 AM,30.2,17.6,60,30.12,10.0,Calm,Calm,-,N/A,,Overcast,0,2013-03-23 16:33:00
11:53 AM,33.8,17.6,52,30.11,10.0,Calm,Calm,-,N/A,,Overcast,0,2013-03-23 16:53:00
12:13 PM,33.8,15.8,48,30.10,10.0,NNW,3.5,-,N/A,,Overcast,330,2013-03-23 17:13:00
12:33 PM,35.6,15.8,44,30.10,10.0,North,4.6,-,N/A,,Overcast,360,2013-03-23 17:33:00
12:53 PM,35.6,15.8,44,30.10,10.0,Calm,Calm,-,N/A,,Overcast,0,2013-03-23 17:53:00
1:13 PM,35.6,17.6,48,30.11,10.0,SSW,3.5,-,N/A,,Overcast,200,2013-03-23 18:13:00
1:33 PM,35.6,17.6,48,30.10,10.0,Calm,Calm,-,N/A,,Overcast,0,2013-03-23 18:33:00
1:53 PM,35.6,15.8,44,30.10,10.0,Calm,Calm,-,N/A,,Overcast,0,2013-03-23 18:53:00
2:13 PM,37.4,15.8,41,30.09,10.0,Calm,Calm,-,N/A,,Overcast,0,2013-03-23 19:13:00
2:33 PM,35.6,15.8,44,30.08,10.0,SW,4.6,-,N/A,,Overcast,230,2013-03-23 19:33:00
2:53 PM,37.4,15.8,41,30.08,10.0,Calm,Calm,-,N/A,,Mostly Cloudy,0,2013-03-23 19:53:00
3:13 PM,35.6,15.8,44,30.08,10.0,Calm,Calm,-,N/A,,Overcast,0,2013-03-23 20:13:00
3:33 PM,35.6,15.8,44,30.07,10.0,Calm,Calm,-,N/A,,Mostly Cloudy,0,2013-03-23 20:33:00
3:53 PM,35.6,15.8,44,30.08,10.0,Calm,Calm,-,N/A,,Overcast,0,2013-03-23 20:53:00
4:13 PM,35.6,17.6,48,30.07,10.0,NE,4.6,-,N/A,,Overcast,50,2013-03-23 21:13:00
4:33 PM,35.6,15.8,44,30.07,10.0,Calm,Calm,-,N/A,,Overcast,0,2013-03-23 21:33:00
4:53 PM,35.6,17.6,48,30.08,10.0,North,3.5,-,N/A,,Overcast,360,2013-03-23 21:53:00
5:13 PM,35.6,15.8,44,30.08,10.0,Calm,Calm,-,N/A,,Overcast,0,2013-03-23 22:13:00
5:33 PM,35.6,17.6,48,30.08,10.0,North,4.6,-,N/A,,Overcast,360,2013-03-23 22:33:00
5:53 PM,35.6,17.6,48,30.08,10.0,North,4.6,-,N/A,,Overcast,350,2013-03-23 22:53:00
6:13 PM,35.6,17.6,48,30.08,10.0,North,5.8,-,N/A,,Overcast,360,2013-03-23 23:13:00
6:33 PM,33.8,17.6,52,30.09,10.0,North,6.9,-,N/A,,Overcast,350,2013-03-23 23:33:00
6:53 PM,33.8,17.6,52,30.10,10.0,NNE,8.1,-,N/A,,Overcast,20,2013-03-23 23:53:00
7:13 PM,32.0,17.6,55,30.10,10.0,NNE,4.6,-,N/A,,Overcast,20,2013-03-24 00:13:00
7:33 PM,32.0,17.6,55,30.11,10.0,NNE,5.8,-,N/A,,Overcast,20,2013-03-24 00:33:00
7:53 PM,30.2,17.6,60,30.11,10.0,North,5.8,-,N/A,,Overcast,10,2013-03-24 00:53:00
8:13 PM,30.2,17.6,60,30.12,10.0,North,6.9,-,N/A,,Overcast,10,2013-03-24 01:13:00
8:33 PM,30.2,17.6,60,30.12,10.0,North,4.6,-,N/A,,Overcast,10,2013-03-24 01:33:00
8:53 PM,30.2,17.6,60,30.12,10.0,North,5.8,-,N/A,,Overcast,10,2013-03-24 01:53:00
9:13 PM,28.4,17.6,64,30.13,10.0,North,4.6,-,N/A,,Overcast,10,2013-03-24 02:13:00
9:33 PM,28.4,17.6,64,30.14,10.0,North,6.9,-,N/A,,Overcast,10,2013-03-24 02:33:00
9:53 PM,28.4,17.6,64,30.13,10.0,North,5.8,-,N/A,,Overcast,360,2013-03-24 02:53:00
10:13 PM,28.4,17.6,64,30.13,10.0,NNE,4.6,-,N/A,,Overcast,20,2013-03-24 03:13:00
10:33 PM,28.4,17.6,64,30.13,10.0,NNE,5.8,-,N/A,,Overcast,20,2013-03-24 03:33:00
10:53 PM,28.4,17.6,64,30.13,10.0,Calm,Calm,-,N/A,,Overcast,0,2013-03-24 03:53:00
11:13 PM,28.4,17.6,64,30.13,10.0,Calm,Calm,-,N/A,,Overcast,0,2013-03-24 04:13:00
11:33 PM,28.4,17.6,64,30.13,10.0,Calm,Calm,-,N/A,,Overcast,0,2013-03-24 04:33:00
11:53 PM,26.6,17.6,69,30.13,10.0,Calm,Calm,-,N/A,,Overcast,0,2013-03-24 04:53:00